FW2089 Weather Reports


time (UTC)temp
C
wind
direction
speed
KPH
gust
KPH
rain 1hr
cm
rain 24hr
cm
rain mn
cm
humidity
%
barometer
mb
20260507050822 14 0.0 0.0 0.03 0.33 0.03 93 1007.5
20260507050541 14 0.0 0.0 0.03 0.33 0.03 93 1007.4
20260507045821 14 0.0 0.0 0.03 0.33 0.03 93 1007.5
20260507045321 15 0.0 0.0 0.03 0.33 0.03 94 1007.5
20260507044756 15 0.0 0.0 0.03 0.33 0.03 94 1007.5
20260507044253 15 0.0 0.0 0.03 0.33 0.03 94 1007.7
20260507043700 15 0.0 0.0 0.03 0.33 0.03 94 1007.7
20260507043154 15 0.0 0.0 0.03 0.33 0.03 94 1007.5
20260507042640 15 0.0 0.0 0.03 0.33 0.03 94 1007.4
20260507042056 15 0.0 0.0 0.00 0.30 0.00 94 1007.3
20260507041527 15 0.0 0.0 0.00 0.30 0.00 94 1007.4
20260507041232 15 0.0 0.0 0.00 0.30 0.00 94 1007.3
20260507040458 15 0.0 0.0 0.00 0.30 0.00 94 1007.4
20260507035923 15 0.0 0.0 0.00 0.30 0.30 94 1007.5
20260507035358 15 0.0 0.0 0.00 0.30 0.30 94 1007.6
20260507034857 15 0.0 0.0 0.00 0.30 0.30 94 1007.7
20260507034358 15 0.0 0.0 0.00 0.30 0.30 94 1007.6
20260507033839 15 0.0 0.0 0.00 0.30 0.30 94 1007.6
20260507033325 15 0.0 0.0 0.00 0.30 0.30 94 1007.6
20260507032822 15 0.0 0.0 0.00 0.30 0.30 94 1007.5
20260507032307 15 0.0 0.0 0.00 0.30 0.30 94 1007.4
20260507031805 14 0.0 0.0 0.00 0.30 0.30 93 1007.3
20260507031303 14 0.0 0.0 0.00 0.30 0.30 93 1007.2
20260507030943 14 0.0 0.0 0.00 0.30 0.30 93 1007.2
20260507030203 14 0.0 0.0 0.00 0.30 0.30 93 1007.2
20260507025652 14 0.0 0.0 0.00 0.30 0.30 93 1007.2
20260507025153 14 0.0 0.0 0.00 0.30 0.30 93 1007.2
20260507024617 14 0.0 0.0 0.00 0.30 0.30 93 1007.0
20260507024102 14 0.0 0.0 0.00 0.30 0.30 93 1007.0
20260507023601 14 0.0 0.0 0.00 0.30 0.30 93 1007.0
20260507023059 14 0.0 0.0 0.00 0.30 0.30 93 1007.1
20260507022051 14 0.0 0.0 0.00 0.30 0.30 93 1007.0
20260507021551 14 0.0 0.0 0.00 0.30 0.30 93 1007.0
20260507021022 14 0.0 0.0 0.00 0.30 0.30 93 1007.0
20260507020505 14 0.0 0.0 0.00 0.30 0.30 93 1007.0
20260507020222 14 0.0 0.0 0.00 0.30 0.30 93 1007.2
20260507015458 14 0.0 0.0 0.00 0.30 0.30 93 1007.2
20260507015409 14 0.0 0.0 0.00 0.30 0.30 93 1007.0
20260507014643 14 0.0 0.0 0.00 0.30 0.30 93 1007.0
20260507013922 14 0.0 0.0 0.00 0.30 0.30 93 1007.2
20260507013422 14 0.0 0.0 0.00 0.30 0.30 93 1007.2
20260507012918 14 0.0 0.0 0.00 0.30 0.30 93 1007.3
20260507012401 14 0.0 0.0 0.00 0.30 0.30 93 1007.4
20260507011902 14 0.0 0.0 0.00 0.30 0.30 93 1007.4
20260507011347 14 0.0 0.0 0.00 0.30 0.30 93 1007.5
20260507011111 14 0.0 0.0 0.00 0.30 0.30 93 1007.6
20260507010345 14 0.0 0.0 0.00 0.30 0.30 92 1007.5
20260507010046 14 0.0 0.0 0.00 0.30 0.30 92 1007.6
20260507005317 14 0.0 0.0 0.00 0.30 0.30 92 1007.6
20260507004809 14 0.0 0.0 0.03 0.30 0.30 92 1007.6
20260507004304 14 0.0 0.0 0.03 0.30 0.30 92 1007.6
20260507003759 14 0.0 0.0 0.03 0.30 0.30 92 1007.6
20260507003301 14 0.0 0.0 0.03 0.30 0.30 92 1007.5
20260507002801 14 0.0 0.0 0.03 0.30 0.30 92 1007.5
20260507002253 14 0.0 0.0 0.03 0.30 0.30 92 1007.5
20260507001752 14 0.0 0.0 0.05 0.30 0.30 92 1007.4
20260507001727 14 0.0 0.0 0.08 0.30 0.30 92 1007.4
20260507000737 14 0.0 0.0 0.10 0.30 0.30 92 1007.3
20260507000221 14 0.0 0.0 0.10 0.30 0.30 92 1007.3
20260506235945 14 0.0 0.0 0.10 0.30 0.30 91 1007.2
20260506235200 15 0.0 0.0 0.10 0.30 0.30 91 1007.2
20260506234701 15 0.0 0.0 0.08 0.28 0.28 91 1007.1
20260506234133 15 0.0 0.0 0.08 0.28 0.28 91 1007.2
20260506233632 15 0.0 0.0 0.08 0.28 0.28 91 1007.1
20260506233102 15 0.0 0.0 0.08 0.28 0.28 91 1007.1
20260506232600 15 0.0 0.0 0.08 0.28 0.28 91 1007.1
20260506232047 15 0.0 0.0 0.08 0.28 0.28 91 1007.0
20260506231540 15 0.0 0.0 0.03 0.23 0.25 91 1007.0
20260506231302 15 0.0 0.0 0.00 0.20 0.20 91 1007.3
20260506230748 15 0.0 0.0 0.00 0.20 0.20 91 1007.1
20260506230248 15 0.0 0.0 0.00 0.20 0.20 91 1007.2
20260506225501 15 0.0 0.0 0.00 0.20 0.20 91 1007.2
20260506224956 15 0.0 0.0 0.00 0.20 0.20 91 1007.2
20260506224713 15 0.0 0.0 0.03 0.20 0.20 91 1007.2
20260506223949 15 0.0 0.0 0.03 0.20 0.20 91 1007.2
20260506223451 15 0.0 0.0 0.03 0.20 0.20 91 1007.2
20260506223209 15 0.0 0.0 0.05 0.20 0.20 90 1007.2
20260506222440 15 0.0 0.0 0.05 0.20 0.20 90 1007.4
20260506221933 15 0.0 0.0 0.08 0.20 0.20 90 1007.4
20260506221649 15 0.0 0.0 0.08 0.20 0.20 90 1007.6
20260506220931 16 148 0.0 0.0 0.10 0.20 0.20 90 1007.5
20260506220425 16 148 0.0 0.0 0.10 0.20 0.20 90 1007.5
20260506215923 16 148 0.0 1.6 0.10 0.20 0.20 89 1007.6
20260506215421 16 148 0.0 1.6 0.13 0.20 0.20 89 1007.5
20260506215409 16 157 0.0 1.6 0.15 0.20 0.20 89 1007.5
20260506214421 16 158 0.0 3.2 0.13 0.18 0.20 89 1007.5
20260506213922 16 157 0.0 4.8 0.13 0.18 0.18 89 1007.8
20260506213422 16 156 0.0 4.8 0.13 0.18 0.18 89 1007.9
20260506212921 16 95 0.0 6.4 0.10 0.15 0.15 88 1007.9
20260506212421 16 157 0.0 6.4 0.13 0.15 0.15 88 1008.0
20260506211921 16 195 0.0 1.6 0.10 0.13 0.13 88 1008.0
20260506211421 16 207 0.0 4.8 0.10 0.13 0.13 88 1007.9
20260506210922 16 207 0.0 4.8 0.08 0.10 0.10 88 1007.9
20260506210421 16 320 0.0 3.2 0.08 0.10 0.10 87 1007.9
20260506205921 16 320 0.0 6.4 0.08 0.10 0.10 87 1007.9
20260506205421 16 320 1.6 6.4 0.05 0.08 0.08 86 1008.0
20260506204921 16 37 1.6 4.8 0.03 0.05 0.05 86 1008.2
20260506204421 16 112 1.6 4.8 0.03 0.05 0.05 85 1008.1
20260506203921 16 114 1.6 9.7 0.05 0.05 0.05 85 1008.1
20260506203421 16 223 1.6 9.7 0.05 0.05 0.05 85 1008.3
20260506202922 17 111 0.0 4.8 0.05 0.05 0.05 83 1008.3
20260506202410 17 107 0.0 3.2 0.03 0.03 0.03 83 1008.3
20260506201908 17 107 1.6 4.8 0.03 0.03 0.03 82 1008.3
20260506201622 17 133 1.6 11.3 0.03 0.03 0.03 82 1008.3
20260506200905 17 129 1.6 11.3 0.03 0.03 0.03 81 1008.3
20260506200405 17 96 0.0 3.2 0.03 0.03 0.03 81 1008.3
20260506195900 17 96 0.0 9.7 0.03 0.03 0.03 80 1008.2
20260506195326 18 96 0.0 9.7 0.03 0.03 0.03 80 1008.2
20260506194821 18 3 0.0 1.6 0.03 0.03 0.03 79 1008.1
20260506194321 18 3 0.0 1.6 0.03 0.03 0.03 78 1008.3
20260506193821 18 3 0.0 4.8 0.00 0.00 0.00 77 1008.5
20260506193321 18 3 1.6 8.0 0.00 0.00 0.00 76 1008.4
20260506192820 18 190 1.6 8.0 0.00 0.00 0.00 75 1008.5
20260506192321 19 109 0.0 4.8 0.00 0.00 0.00 74 1008.4
20260506191803 19 159 0.0 3.2 0.00 0.00 0.00 73 1008.6
20260506191303 20 162 0.0 8.0 0.00 0.00 0.00 72 1008.5
20260506190758 20 162 0.0 8.0 0.00 0.00 0.00 71 1008.5
20260506190526 20 57 0.0 3.2 0.00 0.00 0.00 70 1008.4
20260506185800 20 51 0.0 4.8 0.00 0.00 0.00 68 1008.4
20260506185300 20 148 0.0 12.9 0.00 0.00 0.00 67 1008.3
20260506184801 20 28 1.6 12.9 0.00 0.00 0.00 67 1008.4
20260506184512 20 114 0.0 4.8 0.00 0.00 0.00 66 1008.4
20260506184015 20 170 0.0 8.0 0.00 0.00 0.00 65 1008.5
20260506183250 21 160 0.0 8.0 0.00 0.00 0.00 64 1008.5
20260506182751 21 16 1.6 8.0 0.00 0.00 0.00 63 1008.5
20260506182248 21 51 1.6 8.0 0.00 0.00 0.00 62 1008.5
20260506181748 21 54 1.6 4.8 0.00 0.00 0.00 62 1008.5
20260506181509 21 113 1.6 4.8 0.00 0.00 0.00 61 1008.5
20260506181010 22 136 1.6 6.4 0.00 0.00 0.00 61 1008.7
20260506180246 22 49 1.6 6.4 0.00 0.00 0.00 60 1008.7
20260506175734 22 170 1.6 8.0 0.00 0.00 0.00 60 1008.8
20260506175230 22 163 1.6 9.7 0.00 0.00 0.00 59 1008.9
20260506174710 22 35 1.6 9.7 0.00 0.00 0.00 60 1009.1
20260506174206 22 116 1.6 14.5 0.00 0.00 0.00 61 1009.0
20260506173705 22 113 1.6 14.5 0.00 0.00 0.00 62 1009.1
20260506173206 22 162 1.6 16.1 0.00 0.00 0.00 61 1009.0
20260506172700 22 152 1.6 16.1 0.00 0.00 0.00 60 1009.1
20260506172159 22 134 1.6 9.7 0.00 0.00 0.00 60 1009.0
20260506171659 23 154 1.6 4.8 0.00 0.00 0.00 61 1009.1
20260506171200 23 17 1.6 9.7 0.00 0.00 0.00 60 1009.1
20260506170650 23 47 1.6 9.7 0.00 0.00 0.00 61 1009.0
20260506170151 22 105 3.2 9.7 0.00 0.00 0.00 60 1008.9
20260506165649 22 253 3.2 6.4 0.00 0.00 0.00 64 1009.2
20260506165149 22 57 3.2 6.4 0.00 0.00 0.00 62 1009.2
20260506164650 22 200 1.6 6.4 0.00 0.00 0.00 62 1009.4
20260506164150 22 173 1.6 9.7 0.00 0.00 0.00 61 1009.5
20260506163649 22 129 1.6 9.7 0.00 0.00 0.00 64 1009.5
20260506163148 22 52 1.6 9.7 0.00 0.00 0.00 64 1009.6
20260506162914 22 57 1.6 9.7 0.00 0.00 0.00 63 1009.6
20260506162148 22 115 0.0 9.7 0.00 0.00 0.00 64 1009.7
20260506161651 22 111 1.6 9.7 0.00 0.00 0.00 64 1009.8
20260506161142 22 337 1.6 6.4 0.00 0.00 0.00 63 1009.8
20260506160640 22 127 1.6 6.4 0.00 0.00 0.00 63 1009.9
20260506160140 22 78 1.6 4.8 0.00 0.00 0.00 64 1010.0
20260506155638 22 155 0.0 4.8 0.00 0.00 0.00 63 1010.0
20260506155123 22 99 1.6 6.4 0.00 0.00 0.00 64 1010.2
20260506154623 22 101 1.6 6.4 0.00 0.00 0.00 63 1010.3
20260506154106 22 13 1.6 9.7 0.00 0.00 0.00 63 1010.3
20260506153828 22 45 1.6 9.7 0.00 0.00 0.00 62 1010.4
20260506153101 22 19 1.6 8.0 0.00 0.00 0.00 64 1010.3
20260506152820 22 74 0.0 6.4 0.00 0.00 0.00 64 1010.4
20260506152056 21 140 0.0 6.4 0.00 0.00 0.00 64 1010.4
20260506151553 21 324 0.0 6.4 0.00 0.00 0.00 65 1010.5
20260506151054 21 324 1.6 6.4 0.00 0.00 0.00 65 1010.5
20260506150539 21 84 1.6 6.4 0.00 0.00 0.00 65 1010.6
20260506150310 21 83 1.6 6.4 0.00 0.00 0.00 65 1010.6
20260506145539 21 163 1.6 9.7 0.00 0.00 0.00 67 1010.6
20260506145024 21 126 3.2 9.7 0.00 0.00 0.00 67 1010.6
20260506144522 21 149 3.2 8.0 0.00 0.00 0.00 66 1010.4
20260506144023 21 54 1.6 6.4 0.00 0.00 0.00 67 1010.5
20260506143523 21 123 1.6 8.0 0.00 0.00 0.00 68 1010.5
20260506143023 20 143 1.6 8.0 0.00 0.00 0.00 69 1010.4
20260506142522 20 111 1.6 4.8 0.00 0.00 0.00 69 1010.4
20260506142244 20 109 1.6 6.4 0.00 0.00 0.00 70 1010.4
20260506141523 20 100 1.6 12.9 0.00 0.00 0.00 70 1010.4
20260506141022 20 234 1.6 12.9 0.00 0.00 0.00 72 1010.5
20260506140522 20 7 1.6 4.8 0.00 0.00 0.00 73 1010.5
20260506140018 20 328 1.6 6.4 0.00 0.00 0.00 74 1010.5
20260506135513 19 277 1.6 8.0 0.00 0.00 0.00 73 1010.5
20260506135238 19 82 1.6 8.0 0.00 0.00 0.00 76 1010.5
20260506134458 18 113 1.6 8.0 0.00 0.00 0.00 75 1010.4
20260506134219 18 13 1.6 8.0 0.00 0.00 0.00 77 1010.7
20260506133500 18 233 0.0 6.4 0.00 0.00 0.00 77 1010.9
20260506132957 18 132 0.0 4.8 0.00 0.00 0.00 78 1011.1
20260506132456 18 142 1.6 4.8 0.00 0.00 0.00 78 1011.2
20260506131956 18 297 0.0 4.8 0.00 0.00 0.00 79 1011.1
20260506131454 17 185 0.0 1.6 0.00 0.00 0.00 80 1011.1
20260506130951 17 0.0 0.0 0.00 0.00 0.00 81 1011.1
20260506130450 17 0.0 0.0 0.00 0.00 0.00 81 1010.9
20260506125949 17 0.0 0.0 0.00 0.00 0.00 82 1010.9
20260506125446 17 0.0 0.0 0.00 0.00 0.00 83 1010.9
20260506124935 16 0.0 0.0 0.00 0.00 0.00 84 1011.1
20260506124422 16 0.0 0.0 0.00 0.00 0.00 84 1011.0
20260506123922 16 0.0 0.0 0.00 0.00 0.00 84 1011.1
20260506123422 16 0.0 0.0 0.00 0.00 0.00 84 1011.1
20260506122921 16 0.0 0.0 0.00 0.00 0.00 85 1011.2
20260506122407 16 0.0 0.0 0.00 0.00 0.00 85 1011.1
20260506121904 16 0.0 0.0 0.00 0.00 0.00 85 1011.1
20260506121621 15 0.0 0.0 0.00 0.00 0.00 85 1011.0
20260506120902 15 0.0 0.0 0.00 0.00 0.00 85 1011.0
20260506120617 15 0.0 0.0 0.00 0.00 0.00 85 1011.1
20260506115900 15 0.0 0.0 0.00 0.00 0.00 85 1011.4
20260506115359 15 0.0 0.0 0.00 0.00 0.00 85 1011.5
20260506114856 15 0.0 0.0 0.00 0.00 0.00 85 1011.4
20260506114349 15 0.0 0.0 0.00 0.00 0.00 85 1011.4
20260506113842 15 0.0 0.0 0.00 0.00 0.00 86 1011.7
20260506113551 15 0.0 0.0 0.00 0.00 0.00 86 1011.7
20260506112803 15 0.0 0.0 0.00 0.00 0.00 86 1011.6
20260506112301 15 0.0 0.0 0.00 0.00 0.00 86 1011.6
20260506111801 15 0.0 0.0 0.00 0.00 0.00 86 1011.6
20260506111744 15 0.0 0.0 0.00 0.00 0.00 86 1011.5
20260506110753 15 0.0 0.0 0.00 0.00 0.00 86 1011.4
20260506110249 15 0.0 0.0 0.00 0.00 0.00 86 1011.4
20260506110007 15 0.0 0.0 0.00 0.00 0.00 85 1011.4
20260506105507 15 0.0 0.0 0.00 0.00 0.00 85 1011.4
20260506104728 15 0.0 0.0 0.00 0.00 0.00 85 1011.4
20260506104223 15 0.0 0.0 0.00 0.00 0.00 85 1011.5
20260506104217 15 0.0 0.0 0.00 0.00 0.00 85 1011.6
20260506103203 15 0.0 0.0 0.00 0.00 0.00 85 1011.5
20260506102655 15 0.0 0.0 0.00 0.00 0.00 85 1011.5
20260506102149 15 0.0 0.0 0.00 0.00 0.00 85 1011.5
20260506101635 15 0.0 0.0 0.00 0.00 0.00 85 1011.4
20260506101122 15 0.0 0.0 0.00 0.00 0.00 85 1011.3
20260506100622 15 0.0 0.0 0.00 0.00 0.00 85 1011.3
20260506100105 15 0.0 0.0 0.00 0.00 0.00 85 1011.3
20260506095605 15 0.0 0.0 0.00 0.00 0.00 84 1011.3
20260506095103 15 0.0 0.0 0.00 0.00 0.00 84 1011.2
20260506094603 15 0.0 0.0 0.00 0.00 0.00 84 1011.1
20260506094101 15 0.0 0.0 0.00 0.00 0.00 84 1011.1
20260506093600 15 0.0 0.0 0.00 0.00 0.00 84 1011.1
20260506093100 15 0.0 0.0 0.00 0.00 0.00 84 1011.3
20260506092553 15 0.0 0.0 0.00 0.00 0.00 84 1011.2
20260506092305 15 0.0 0.0 0.00 0.00 0.00 84 1011.1
20260506091531 15 0.0 0.0 0.00 0.00 0.00 83 1011.1
20260506090957 15 0.0 0.0 0.00 0.00 0.00 83 1011.1
20260506090459 15 0.0 0.0 0.00 0.00 0.00 82 1011.1
20260506090000 15 0.0 0.0 0.00 0.00 0.00 82 1011.1
20260506085439 15 0.0 0.0 0.00 0.00 0.00 82 1011.3
20260506084901 15 0.0 0.0 0.00 0.00 0.00 82 1011.4
20260506084343 15 0.0 0.0 0.00 0.00 0.00 82 1011.4
20260506083839 15 0.0 0.0 0.00 0.00 0.00 82 1011.3
20260506083322 15 0.0 0.0 0.00 0.00 0.00 81 1011.4
20260506082821 15 0.0 0.0 0.00 0.00 0.00 81 1011.4
20260506082258 15 0.0 0.0 0.00 0.00 0.00 81 1011.4
20260506081731 15 0.0 0.0 0.00 0.00 0.00 81 1011.3
20260506081217 15 0.0 0.0 0.00 0.00 0.00 81 1011.2
20260506080713 15 0.0 0.0 0.00 0.00 0.00 80 1011.3
20260506080158 15 0.0 0.0 0.00 0.00 0.00 80 1011.2
20260506080145 15 0.0 0.0 0.00 0.00 0.00 80 1011.4
20260506073059 16 0.0 0.0 0.00 0.00 0.00 79 1011.2
20260506072529 16 0.0 0.0 0.00 0.00 0.00 78 1011.2
20260506072014 16 0.0 0.0 0.00 0.00 0.00 78 1011.2
20260506071945 16 0.0 0.0 0.00 0.00 0.00 78 1011.1
20260506070959 16 0.0 0.0 0.00 0.00 0.00 78 1011.1
20260506070459 16 0.0 0.0 0.00 0.00 0.00 77 1011.1
20260506070253 16 0.0 0.0 0.00 0.00 0.00 77 1011.1
20260506070154 16 0.0 0.0 0.00 0.00 0.00 77 1011.0
20260506062205 16 0.0 0.0 0.00 0.00 0.00 75 1010.9
20260506061926 16 0.0 0.0 0.00 0.00 0.00 75 1010.9
20260506061145 16 0.0 0.0 0.00 0.00 0.00 75 1011.0
20260506060643 16 0.0 0.0 0.00 0.00 0.00 75 1010.9
20260506060139 16 0.0 0.0 0.00 0.00 0.00 74 1011.0